www.pogodaiklimat.ru

Погода и климат >> Архив погоды >> Турция >> Искендерун


ПОГОДА в Искендеруне

  • Прогноз погоды в Искендеруне
  • Монитор погоды в Искендеруне

АРХИВ ПОГОДЫ в Искендеруне

Время (UTC), дата Ветер
(напр.,м/с)
 
Видим.   Явления Облачность Т
(С)
Тd
(С)
f
(%)
Тe
(С)
Тes
(С)
Комфортность P
(гПа)
Po
(гПа)
Тmin
(С)
Tmax
(С)
R
(мм)
R24
(мм)
S
(см)
00 14.08 З 3
{6}
20 км 5/5 1050 м
[Cu hum]
+29.5 +25.2 78 +43 +43 опасность
перегрева
1005.4 1005.0
03 14.08 ЮЗ 1
{7}
20 км 6/6 1050 м
[Cu med, cong]
+29.1 +24.4 76 +41 +41 опасность
перегрева
1005.3 1004.9
06 14.08 ЮЗ 3
{7}
15 км 9/5 1050 м
[Cu med, cong Ac As]
+29.1 +24.9 78 +42 +43 опасность
перегрева
1006.0 1005.6 +29.1
07 14.08 З 3 15 км 9/5 1000 м
[Cu med, cong Ac As]
+29.3 +24.8 77 +42 +44 опасность
перегрева
1006.2 1005.8
08 14.08 З 3 15 км 8/4 1000 м
[Cu med, cong Ac trans]
+29.6 +25.2 77 +43 +48 опасность
перегрева
1006.5 1006.1
09 14.08 З 3
{5}
20 км 4/4 1050 м
[Cu hum]
+30.5 +24.8 72 +44 +53 опасность
перегрева
1006.2 1005.8
10 14.08 З 3 20 км 8/4 1000 м
[Cu med, cong Ac trans]
+31.7 +25.7 71 +47 +52 опасность
перегрева
1006.2 1005.8
11 14.08 З 4 20 км 8/4 1000 м
[Cu med, cong Ac trans]
+32.1 +24.9 66 +46 +50 опасность
перегрева
1006.1 1005.7
12 14.08 З 3
{6}
20 км 3/3 1050 м
[Cu hum]
+32.5 +25.1 65 +46 +55 опасность
перегрева
1005.8 1005.4
13 14.08 З 4 20 км 3/3 1000 м
[Cu hum]
+32.1 +24.6 65 +45 +50 опасность
перегрева
1005.7 1005.3
14 14.08 З 3 20 км 3/3 1000 м
[Cu hum]
+32.0 +24.4 64 +44 +47 опасность
перегрева
1005.9 1005.5
15 14.08 З 3
{5}
20 км 4/4 1050 м
[Cu med, cong]
+31.2 +24.4 67 +43 +44 опасность
перегрева
1005.8 1005.4
16 14.08 З 3 20 км 3/3 1000 м
[Cu hum]
+30.3 +22.8 64 +40 +40 очень
душно
1005.8 1005.4
17 14.08 З 2 20 км 4/4 1000 м
[Cu med, cong]
+29.6 +24.1 72 +41 +41 опасность
перегрева
1006.2 1005.8
18 14.08 З 3
{5}
20 км 4/4 1050 м
[Cu med, cong]
+29.3 +24.7 76 +42 +42 опасность
перегрева
1006.5 1006.1 +32.6
21 14.08 ЮЗ 2
{6}
20 км ясно +29.2 +23.4 71 +40 +40 очень
душно
1006.6 1006.2
00 15.08 ЮЗ 2
{7}
20 км ясно +28.9 +23.3 72 +39 +39 очень
душно
1005.9 1005.5
03 15.08 ЮЗ 3
{5}
15 км 8/4 1050 м
[Cu med, cong Ac trans]
+28.7 +23.5 74 +39 +39 очень
душно
1006.0 1005.6
06 15.08 З 4
{7}
20 км 9/4 1050 м
[Cu med, cong Ac trans]
+28.8 +23.7 74 +39 +41 очень
душно
1006.4 1006.0 +28.5
07 15.08 З 5 20 км 8/4 1000 м
[Cu med, cong Ac trans]
+29.0 +24.1 75 +40 +43 очень
душно
1007.1 1006.7
08 15.08 З 5 20 км 8/4 1000 м
[Cu med, cong Ac trans]
+29.3 +23.8 72 +40 +43 очень
душно
1007.5 1007.1
09 15.08 ЮЗ 5
{8}
20 км 8/4 1050 м
[Cu med, cong Ac trans]
+29.8 +23.5 69 +40 +44 очень
душно
1007.4 1007.0
10 15.08 З 6 20 км 8/4 1000 м
[Cu med, cong Ac trans]
+29.6 +24.4 74 +42 +45 опасность
перегрева
1007.4 1007.0
11 15.08 ЮЗ 5 20 км 8/4 1000 м
[Cu med, cong Ac trans]
+29.7 +24.2 72 +41 +45 опасность
перегрева
1007.6 1007.2
12 15.08 З 4
{10}
20 км 8/4 1050 м
[Cu med, cong Ac trans]
+29.6 +24.5 74 +42 +45 опасность
перегрева
1007.4 1007.0
13 15.08 З 5 20 км 8/4 1000 м
[Cu med, cong Ac trans]
+29.8 +24.8 75 +43 +45 опасность
перегрева
1007.1 1006.7
14 15.08 З 4 20 км 8/4 1000 м
[Cu med, cong Ac trans]
+30.3 +24.4 71 +43 +44 опасность
перегрева
1007.2 1006.8
15 15.08 ЮЗ 4
{7}
20 км 8/4 1050 м
[Cu med, cong Ac trans]
+29.5 +23.4 70 +40 +40 очень
душно
1007.3 1006.9
16 15.08 З 3 20 км 8/4 1000 м
[Cu med, cong Ac trans]
+29.2 +24.1 74 +41 +41 опасность
перегрева
1007.6 1007.2
17 15.08 З 3 20 км 8/4 1000 м
[Cu med, cong Ac trans]
+28.7 +24.0 76 +40 +40 очень
душно
1007.7 1007.3
18 15.08 З 2
{7}
20 км 8/4 1050 м
[Cu med, cong Ac trans]
+28.6 +23.5 74 +39 +39 очень
душно
1008.3 1007.9 +30.6
21 15.08 З 3
{6}
20 км 8/4 1050 м
[Cu med, cong Ac trans]
+28.4 +23.3 74 +38 +38 очень
душно
1008.6 1008.2
00 16.08 В 1
{6}
20 км 8/4 1050 м
[Cu med, cong Ac trans]
+27.5 +21.9 72 +36 +36 очень
душно
1007.4 1007.0
03 16.08 В 1
{2}
20 км 8/4 1050 м
[Cu med, cong Ac trans]
+27.3 +21.8 72 +35 +35 очень
душно
1006.6 1006.2
06 16.08 З 2
{8}
20 км {ливн. осадки} 5/5 1050 м
[Cu med, cong]
+28.5 +22.8 71 +38 +42 очень
душно
1007.4 1007.0 +24.0 2
07 16.08 З 2 20 км 5/5 1000 м
[Cu med, cong]
+29.1 +22.7 68 +38 +44 очень
душно
1007.7 1007.3
08 16.08 С 2 20 км 5/5 1000 м
[Cu med, cong]
+28.3 +22.4 70 +37 +46 очень
душно
1008.0 1007.6
09 16.08 ЮЗ 2
{5}
20 км 5/5 1050 м
[Cu med, cong]
+31.2 +21.4 56 +39 +48 очень
душно
1008.1 1007.7
10 16.08 З 3 20 км 4/4 1000 м
[Cu med, cong]
+31.5 +21.8 56 +40 +50 очень
душно
1007.8 1007.4
11 16.08 З 3 20 км 4/4 1000 м
[Cu med, cong]
+31.4 +21.8 57 +40 +48 очень
душно
1007.6 1007.2
12 16.08 З 4
{6}
20 км 4/4 1050 м
[Cu med, cong]
+31.1 +21.5 57 +39 +44 очень
душно
1007.4 1007.0
13 16.08 З 4 20 км 4/4 1000 м
[Cu med, cong]
+30.5 +22.4 62 +40 +43 очень
душно
1007.2 1006.8
14 16.08 З 4 20 км 4/4 1000 м
[Cu med, cong]
+30.5 +22.6 63 +40 +42 очень
душно
1007.0 1006.6
15 16.08 ЮЗ 3
{7}
20 км 4/4 1050 м
[Cu med, cong]
+29.8 +23.0 67 +40 +40 очень
душно
1006.9 1006.5 261
16 16.08 З 2 20 км 4/4 1000 м
[Cu med, cong]
+29.2 +23.2 70 +39 +39 очень
душно
1006.9 1006.5
17 16.08 З 2 20 км 4/4 1000 м
[Cu med, cong]
+28.6 +23.0 72 +38 +38 очень
душно
1007.4 1007.0
18 16.08 З 2
{7}
20 км 4/4 1050 м
[Cu med, cong]
+28.4 +22.3 70 +37 +37 очень
душно
1008.1 1007.7 +31.8
21 16.08 ЮЗ 1
{4}
20 км 4/4 1050 м
[Cu med, cong]
+28.1 +22.2 70 +37 +37 очень
душно
1007.9 1007.5
00 17.08 штиль 0
{4}
20 км 4/4 1050 м
[Cu med, cong]
+27.6 +22.3 73 +36 +36 очень
душно
1006.8 1006.4
03 17.08 штиль 0
{2}
20 км 5/5 1050 м
[Cu med, cong]
+28.0 +22.8 73 +37 +37 очень
душно
1006.6 1006.2
06 17.08 С 2
{3}
15 км 8/4 1050 м
[Cu med, cong Ac trans]
+29.0 +22.9 70 +39 +42 очень
душно
1007.2 1006.8 +27.4
07 17.08 С 2 15 км 8/4 1000 м
[Cu med, cong Ac trans]
+30.1 +22.9 65 +40 +44 очень
душно
1007.4 1007.0
08 17.08 СЗ 2 15 км 3/3 1000 м
[Cu hum]
+30.4 +23.3 66 +41 +52 опасность
перегрева
1007.4 1007.0
09 17.08 СЗ 2
{4}
20 км 3/3 1050 м
[Cu med, cong]
+31.1 +23.3 63 +42 +55 опасность
перегрева
1007.3 1006.9 270
10 17.08 СЗ 1 20 км 3/3 1000 м
[Cu hum]
+30.9 +23.5 65 +42 +57 опасность
перегрева
1007.0 1006.6
11 17.08 З 4 20 км 3/3 1000 м
[Cu med, cong]
+31.7 +25.4 69 +46 +54 опасность
перегрева
1006.4 1006.0
12 17.08 З 5
{8}
20 км 3/3 1050 м
[Cu hum]
+31.4 +25.6 71 +46 +51 опасность
перегрева
1006.1 1005.7
13 17.08 З 5 20 км 4/4 1000 м
[Cu med, cong]
+30.9 +25.3 72 +45 +47 опасность
перегрева
1005.5 1005.1
14 17.08 ЮЗ 5 20 км 4/4 1000 м
[Cu med, cong]
+30.5 +25.4 74 +44 +46 опасность
перегрева
1005.4 1005.0
15 17.08 ЮЗ 5
{9}
20 км 4/4 1050 м
[Cu med, cong]
+29.8 +25.0 75 +43 +43 опасность
перегрева
1005.2 1004.8
16 17.08 ЮЗ 4 20 км 4/4 1000 м
[Cu med, cong]
+29.6 +24.7 75 +42 +42 опасность
перегрева
1005.1 1004.7
17 17.08 З 3 20 км 4/4 1000 м
[Cu med, cong]
+29.2 +25.0 78 +42 +42 опасность
перегрева
1005.6 1005.2
18 17.08 ЮЗ 3
{9}
20 км 4/4 1050 м
[Cu hum]
+29.0 +24.6 77 +41 +41 опасность
перегрева
1006.0 1005.6 +32.2
21 17.08 З 4
{7}
20 км 3/3 1050 м
[Cu hum]
+28.8 +24.5 78 +41 +41 опасность
перегрева
1005.3 1004.9
00 18.08 ЮЗ 3
{7}
20 км ясно +28.4 +24.1 78 +40 +40 очень
душно
1004.6 1004.2
03 18.08 ЮВ 1
{4}
20 км 9/5 1050 м
[Cu med, cong Ac As]
+27.6 +23.3 77 +37 +37 очень
душно
1004.2 1003.8
06 18.08 З 4
{8}
15 км 5/5 1050 м
[Cu med, cong]
+28.7 +23.7 74 +39 +42 очень
душно
1004.7 1004.3 +27.5
07 18.08 ЮЗ 4 15 км 4/4 1000 м
[Cu hum]
+29.6 +24.2 73 +41 +47 опасность
перегрева
1005.1 1004.7
08 18.08 З 4 15 км 5/5 1000 м
[Cu med, cong]
+30.6 +24.5 70 +43 +48 опасность
перегрева
1005.3 1004.9
09 18.08 З 3
{6}
15 км 5/5 1050 м
[Cu med, cong]
+31.5 +25.1 69 +45 +53 опасность
перегрева
1005.3 1004.9
10 18.08 З 3 15 км 5/5 1000 м
[Cu med, cong]
+31.5 +24.7 67 +44 +52 опасность
перегрева
1005.4 1005.0
11 18.08 З 4 20 км 4/4 1000 м
[Cu med, cong]
+31.7 +24.1 64 +44 +51 опасность
перегрева
1005.3 1004.9
12 18.08 З 5
{8}
20 км 4/4 1050 м
[Cu hum]
+31.1 +24.5 68 +44 +48 опасность
перегрева
1005.5 1005.1 11
13 18.08 З 5 20 км 4/4 1000 м
[Cu hum]
+30.9 +24.0 67 +43 +46 опасность
перегрева
1005.5 1005.1
14 18.08 З 4 20 км 4/4 1000 м
[Cu hum]
+30.5 +24.5 70 +43 +44 опасность
перегрева
1005.6 1005.2
15 18.08 З 4
{8}
20 км 4/4 1050 м
[Cu hum]
+30.3 +23.5 67 +41 +42 опасность
перегрева
1005.8 1005.4
16 18.08 З 3 20 км 4/4 1000 м
[Cu hum]
+29.6 +23.9 71 +41 +41 опасность
перегрева
1006.1 1005.7
17 18.08 З 3 20 км 4/4 1000 м
[Cu hum]
+29.0 +23.0 70 +39 +39 очень
душно
1006.4 1006.0
18 18.08 З 2
{8}
20 км 4/4 1050 м
[Cu hum]
+28.8 +23.2 72 +39 +39 очень
душно
1006.7 1006.3 +32.1
06 19.08 СЗ 1
{3}
15 км 3/3 1050 м
[Cu hum]
+29.8 +20.5 57 +37 +43 очень
душно
1008.4 1008.0 +26.6
07 19.08 СЗ 1 15 км 3/3 1000 м
[Cu hum]
+30.1 +20.6 57 +37 +47 очень
душно
1008.6 1008.2
08 19.08 З 2 20 км 3/3 1000 м
[Cu hum]
+30.7 +20.6 55 +38 +50 очень
душно
1008.9 1008.5
09 19.08 З 3
{4}
20 км 4/4 1050 м
[Cu med, cong]
+31.0 +21.3 56 +39 +48 очень
душно
1008.9 1008.5
10 19.08 З 3 20 км 8/5 1000 м
[Cu med, cong Ac trans]
+30.8 +21.5 58 +39 +44 очень
душно
1009.1 1008.7
11 19.08 З 3 20 км 3/3 1000 м
[Cu hum]
+30.7 +21.7 59 +39 +48 очень
душно
1008.9 1008.5
12 19.08 З 3
{5}
20 км 3/3 1050 м
[Cu hum]
+31.4 +21.4 55 +39 +47 очень
душно
1008.7 1008.3
13 19.08 З 3 20 км 3/3 1000 м
[Cu hum]
+30.9 +21.0 56 +38 +44 очень
душно
1008.8 1008.4
14 19.08 З 3 20 км 3/3 1000 м
[Cu hum]
+30.9 +21.3 57 +39 +41 очень
душно
1008.7 1008.3
15 19.08 З 3
{5}
20 км 3/3 1050 м
[Cu hum]
+30.0 +21.1 59 +38 +38 очень
душно
1009.2 1008.8 80
16 19.08 З 2 20 км 3/3 1000 м
[Cu hum]
+29.3 +20.8 60 +36 +36 очень
душно
1009.4 1009.0
17 19.08 З 1 20 км 3/3 1000 м
[Cu hum]
+28.9 +21.4 64 +37 +37 очень
душно
1009.7 1009.3
18 19.08 З 1
{5}
20 км 3/3 1050 м
[Cu hum]
+28.7 +20.9 63 +36 +36 очень
душно
1010.2 1009.8 +31.6
06 20.08 С 2
{4}
20 км 4/4 1050 м
[Cu hum]
+28.4 +20.9 64 +36 +40 очень
душно
1010.3 1009.9 +27.2
07 20.08 СЗ 1 20 км 4/4 1000 м
[Cu hum]
+29.5 +21.3 61 +37 +45 очень
душно
1010.7 1010.3
08 20.08 СЗ 2 20 км 4/4 1000 м
[Cu hum]
+29.7 +21.6 62 +38 +48 очень
душно
1010.8 1010.4
09 20.08 СЗ 2
{4}
20 км 4/4 1050 м
[Cu hum]
+30.5 +21.6 59 +39 +50 очень
душно
1010.7 1010.3
10 20.08 З 2 20 км 4/4 1000 м
[Cu hum]
+30.4 +22.0 61 +39 +50 очень
душно
1010.6 1010.2
11 20.08 З 3 20 км 4/4 1000 м
[Cu hum]
+30.9 +21.8 58 +39 +47 очень
душно
1010.2 1009.8
12 20.08 З 4
{6}
20 км 4/4 1050 м
[Cu hum]
+31.3 +22.1 58 +40 +46 очень
душно
1010.0 1009.6
13 20.08 З 4 20 км 4/4 1000 м
[Cu hum]
+30.9 +22.0 59 +40 +43 очень
душно
1009.8 1009.4
14 20.08 З 5 20 км 4/4 1000 м
[Cu hum]
+30.1 +21.2 59 +38 +39 очень
душно
1010.0 1009.6
15 20.08 ЮЗ 4
{7}
20 км 4/4 1050 м
[Cu hum]
+29.9 +20.7 58 +37 +38 очень
душно
1010.1 1009.7
17 20.08 ЮЗ 2 20 км 4/4 1000 м
[Cu hum]
+28.5 +21.2 65 +36 +36 очень
душно
1010.3 1009.9
18 20.08 ЮЗ 3
{7}
20 км 4/4 1050 м
[Cu hum]
+28.5 +22.1 68 +37 +37 очень
душно
1010.7 1010.3 +31.6

 

Местоположение метеостанции Искендерун (Турция): широта 36.58 долгота 36.17 высота над уровнем моря 4 м.

В архиве по умолчанию представлена погода в Искендеруне за последнюю неделю. Архивные данные за месяц целиком и за предыдущие месяцы, начиная с января 2011 года, Вы можете получить, выбрав интересующий диапазон дат из раскрывающегося списка и нажав кнопку "Ввод!".


*Определитесь, кто Вы:
робот инопланетянин человек

Внимание! Время в таблицах - всемирное. Для получения местного времени необходимо прибавить поправку, которая равна 2 ч.

Смотрите также архив погоды в соседних городах и на ближайших метеорологических станциях:

Погода в Османие (Турция) (58 км)
Погода в Инджирлике (Турция) (81 км)
Погода в Килисе (Турция) (85 км)
Погода в Адане (Турция) (89 км)
Погода в Алеппо (Сирия) (102 км)
Погода в Газиантепе (Турция) (118 км)
Погода в Газиантепе (Турция) (120 км)
Погода в Латакии (Сирия) (122 км)
Погода в Кахраманмараше (Турция) (132 км)
Погода в Аэропорту Басиля Эль-Асада (Сирия) (133 км)

Пояснения к столбцам:

Ветер - указаны скорость ветра в м/с - средняя за 10 мин, порывы в срок и между сроками (в фигурных скобках) и направление, откуда дует ветер: С - северный, СВ - северо-восточный, В - восточный, ЮВ - юго-восточный, Ю - южный, ЮЗ - юго-западный, З - западный, СЗ - северо-западный.
Видимость - горизонтальная дальность видимости в метрах или километрах. При видимости от 1 до 10 км при отсутствии осадков обычно наблюдается дымка, при ухудшении видимости до 1 км и менее - туман. В сухую погоду видимость может ухудшаться дымом, пылью или мглою.
Явления - указаны атмосферные явления, наблюдавшиеся в срок или в последний час перед сроком; фигурными скобками обозначены явления, наблюдавшиеся между сроками (за 1-3 часа до срока); квадратными скобками обозначены град или гололедные отложения с указанием их диаметра в мм.
Облачность - указаны через наклонную черту общая и нижняя облачность в баллах и высота нижней границы облаков в метрах; квадратными скобками обозначены формы облаков: Ci - перистые, Cs - перисто-слоистые, Cc - перисто-кучевые, Ac - высококучевые, As - высокослоистые, Sc - слоисто-кучевые, Ns - слоисто-дождевые, Cu - кучевые, Cb - кучево-дождевые. Подробнее классификацию облаков см. в Атласе облаков (PDF).
T - Температура воздуха - температура, измеренная на высоте 2 м над землей.
Td - Температура точки росы - температура, при понижении до которой содержащийся в воздухе водяной пар достигнет насыщения.
f - Относительная влажность воздуха - влажноcть воздуха, измеренная на высоте 2 м над землей.
Te - Эффективная температура - температура, которую ощущает одетый по сезону человек в тени. Характеристика душности погоды. При расчете учитывается влияние влажности воздуха и скорости ветра на теплоощущения человека.
Tes - Эффективная температура на солнце - температура, которую ощущает человек, с поправкой на солнечный нагрев. Характеристика знойности погоды. Зависит от высоты солнца над горизонтом, облачности и скорости ветра. Ночью, в пасмурную погоду, а также при ветре 12 м/с и более поправка равна нулю.
P - Атмосферное давление - приведенное к уровню моря атмосферное давление.
Po - Атмосферное давление - измеренное на уровне метеостанции атмосферное давление.
Tmin - Минимальная температура - минимум температуры воздуха на высоте 2 м над землей.
Tmax - Максимальная температура - максимум температуры воздуха на высоте 2 м над землей.
R - Количество осадков - Количество выпавших осадков за период времени, мм. При наведении курсора мыши на число - период времени, за который выпало указанное количество осадков.
R24 - Количество осадков - Количество выпавших осадков за 24 часа, мм.
S - Снежный покров - Высота снежного покрова, см. При наведении курсора мыши на число - состояние снежного покрова и степень покрытия местности в баллах.